Marianna, WV

10:34 AM EDT on August 26, 2016 (GMT -0400)
Pineville

Weather History for KI16 - October, 2013

Change the Weather History Date:

Thursday, October 24, 2013

  Actual Average (KBKW) Record (KBKW)
Temperature  
Mean Temperature 40 °F 51 °F  
Max Temperature 44 °F 61 °F 82 °F (1947)
Min Temperature 35 °F 41 °F 13 °F (1907)
Degree Days  
Heating Degree Days 26 14  
Month to date heating degree days 267  
Since 1 July heating degree days 401  
Cooling Degree Days 0 0  
Month to date cooling degree days 2  
Year to date cooling degree days 552  
Moisture  
Dew Point 37 °F    
Average Humidity 91    
Maximum Humidity 100    
Minimum Humidity 65    
Precipitation  
Precipitation 0.00 in 0.09 in 2.01 in (1926)
Month to date precipitation 1.95  
Year to date precipitation 34.62  
Snow  
Snow 0.00 in - - ()
Month to date snowfall  
Since 1 September snowfall  
Snow Depth -    
Sea Level Pressure  
Sea Level Pressure 30.15 in    
Wind  
Wind Speed - (North)    
Max Wind Speed -    
Max Gust Speed -    
Visibility 10 miles    
Events Rain    
T = Trace of Precipitation, MM = Missing Value Source: NWS Daily Summary

Daily Weather History Graph

Daily Weather History Graph

Search for Another Location

Airport or City:

Trip Planner

Search our weather history database for the weather conditions in past years. The results will help you decide how hot, cold, wet, or windy it might be!

Date:

Astronomy

Oct. 24, 2013 Rise Set
Actual Time 7:43 AM EDT 6:36 PM EDT
Civil Twilight 7:16 AM EDT 7:03 PM EDT
Nautical Twilight 6:46 AM EDT 7:34 PM EDT
Astronomical Twilight 6:15 AM EDT 8:04 PM EDT
Moon 11:02 PM EDT (10/24) 12:40 PM EDT (10/24)
Length of Visible Light 11h 46m
Length of Day
10h 53m
Waning Gibbous, 71% of the Moon is Illuminated
Oct 24
Waning Gibbous
Oct 26
Last Quarter
Nov 3
New
Nov 10
First Quarter
Nov 17
Full

Hourly Weather History & Observations

Time (EDT) Temp. Dew Point Humidity Pressure Visibility Wind Dir Wind Speed Gust Speed Precip Events Conditions
12:15 AM 38.3 °F 38.3 °F 100% 30.09 in 10.0 mi North - - N/A   Overcast
12:35 AM 38.5 °F 38.3 °F 99% 30.08 in 10.0 mi North - - N/A   Overcast
12:55 AM 38.5 °F 38.3 °F 99% 30.08 in 10.0 mi North - - N/A   Overcast
1:15 AM 38.5 °F 38.3 °F 99% 30.08 in 10.0 mi North - - N/A   Overcast
1:35 AM 38.8 °F 38.7 °F 99% 30.08 in 10.0 mi North - - N/A   Overcast
1:55 AM 38.8 °F 38.5 °F 99% 30.09 in 10.0 mi North - - N/A   Overcast
2:15 AM 39.0 °F 38.5 °F 98% 30.09 in 10.0 mi North - - N/A   Overcast
2:35 AM 39.0 °F 38.7 °F 99% 30.10 in 10.0 mi North - - N/A   Overcast
2:55 AM 39.0 °F 38.3 °F 97% 30.10 in 10.0 mi North - - N/A   Overcast
3:15 AM 39.0 °F 38.3 °F 97% 30.10 in 10.0 mi North - - N/A   Overcast
3:35 AM 38.5 °F 37.9 °F 98% 30.10 in 10.0 mi North - - N/A   Overcast
3:55 AM 38.3 °F 37.9 °F 99% 30.10 in 10.0 mi North - - N/A   Overcast
4:15 AM 38.3 °F 37.9 °F 99% 30.10 in 10.0 mi North - - N/A   Overcast
4:35 AM 38.1 °F 37.6 °F 98% 30.10 in 10.0 mi North - - N/A   Overcast
4:55 AM 37.9 °F 37.4 °F 98% 30.10 in 10.0 mi North - - N/A   Overcast
5:15 AM 37.9 °F 37.4 °F 98% 30.10 in 10.0 mi North - - N/A   Overcast
5:35 AM 37.9 °F 37.4 °F 98% 30.11 in 10.0 mi North - - N/A   Overcast
5:55 AM 37.9 °F 37.4 °F 98% 30.11 in 10.0 mi North - - N/A   Overcast
6:15 AM 37.8 °F 37.4 °F 99% 30.11 in 10.0 mi North - - N/A   Overcast
6:35 AM 37.9 °F 37.4 °F 98% 30.12 in 10.0 mi North - - N/A   Overcast
6:55 AM 37.9 °F 37.2 °F 97% 30.12 in 10.0 mi North - - N/A   Overcast
7:15 AM 37.8 °F 37.0 °F 97% 30.13 in 10.0 mi North - - N/A   Overcast
7:35 AM 37.8 °F 36.9 °F 97% 30.13 in 10.0 mi North - - N/A   Overcast
7:55 AM 37.9 °F 37.4 °F 98% 30.13 in 10.0 mi North - - N/A   Overcast
8:15 AM 37.9 °F 37.0 °F 97% 30.13 in 10.0 mi North - - N/A   Overcast
8:35 AM 37.8 °F 37.4 °F 99% 30.14 in 10.0 mi North - - N/A   Overcast
8:55 AM 38.5 °F 37.6 °F 97% 30.14 in 10.0 mi North - - N/A   Overcast
9:15 AM 39.2 °F 37.4 °F 93% 30.15 in 10.0 mi North - - N/A   Overcast
9:35 AM 39.4 °F 37.4 °F 93% 30.15 in 10.0 mi North - - N/A   Overcast
9:55 AM 39.7 °F 37.2 °F 91% 30.16 in 10.0 mi North - - N/A   Overcast
10:15 AM 40.1 °F 36.9 °F 88% 30.16 in 10.0 mi North - - N/A   Overcast
10:35 AM 40.3 °F 36.5 °F 86% 30.17 in 10.0 mi North - - N/A   Overcast
10:55 AM 41.0 °F 36.1 °F 83% 30.17 in 10.0 mi North - - N/A   Overcast
11:15 AM 41.9 °F 35.8 °F 79% 30.17 in 10.0 mi North - - N/A   Overcast
11:35 AM 42.3 °F 34.9 °F 75% 30.16 in 10.0 mi North - - N/A   Overcast
11:55 AM 43.2 °F 34.0 °F 70% 30.16 in 10.0 mi North - - N/A   Overcast
12:15 PM 43.2 °F 33.4 °F 69% 30.16 in 10.0 mi North - - N/A   Overcast
12:35 PM 43.7 °F 33.1 °F 66% 30.16 in 10.0 mi North - - N/A   Overcast
12:55 PM 43.9 °F 32.9 °F 65% 30.15 in 10.0 mi North - - N/A   Overcast
1:15 PM 44.1 °F 32.9 °F 65% 30.15 in 10.0 mi North - - N/A   Overcast
1:35 PM 43.5 °F 33.8 °F 69% 30.14 in 10.0 mi North - - N/A   Overcast
1:55 PM 43.3 °F 34.5 °F 71% 30.14 in 10.0 mi North - - N/A   Light Drizzle
2:15 PM 43.5 °F 34.9 °F 72% 30.14 in 10.0 mi North - - N/A   Overcast
2:35 PM 43.2 °F 34.9 °F 73% 30.14 in 10.0 mi North - - N/A Rain Light Rain
2:55 PM 41.9 °F 36.3 °F 81% 30.15 in 7.0 mi North - - N/A Rain Light Rain
3:15 PM 42.1 °F 36.7 °F 81% 30.15 in 10.0 mi North - - N/A   Overcast
3:35 PM 43.0 °F 36.5 °F 78% 30.15 in 10.0 mi North - - N/A   Overcast
3:55 PM 42.8 °F 36.7 °F 79% 30.16 in 10.0 mi North - - N/A   Light Drizzle
4:15 PM 42.4 °F 36.9 °F 81% 30.16 in 10.0 mi North - - N/A Rain Light Rain
4:35 PM 42.4 °F 36.5 °F 79% 30.17 in 10.0 mi North - - N/A   Overcast
4:55 PM 42.3 °F 37.6 °F 83% 30.17 in 10.0 mi North - - N/A   Overcast
5:15 PM 41.9 °F 37.2 °F 83% 30.17 in 10.0 mi North - - N/A   Overcast
5:35 PM 42.3 °F 36.9 °F 81% 30.17 in 10.0 mi North - - N/A   Overcast
5:55 PM 41.9 °F 36.5 °F 81% 30.17 in 10.0 mi North - - N/A   Mostly Cloudy
6:15 PM 40.6 °F 37.4 °F 88% 30.17 in 10.0 mi North - - N/A   Scattered Clouds
6:35 PM 39.4 °F 37.6 °F 93% 30.18 in 10.0 mi North - - N/A   Mostly Cloudy
6:55 PM 39.2 °F 38.1 °F 96% 30.18 in 10.0 mi North - - N/A   Overcast
7:15 PM 38.7 °F 37.8 °F 97% 30.19 in 10.0 mi North - - N/A   Overcast
7:35 PM 37.6 °F 37.0 °F 98% 30.20 in 10.0 mi North - - N/A   Mostly Cloudy
7:55 PM 36.9 °F 36.5 °F 99% 30.20 in 10.0 mi North - - N/A   Mostly Cloudy
8:15 PM 36.1 °F 36.0 °F 99% 30.20 in 10.0 mi North - - N/A   Mostly Cloudy
8:35 PM 36.3 °F 36.3 °F 100% 30.21 in 10.0 mi North - - N/A   Mostly Cloudy
8:55 PM 35.2 °F 35.2 °F 100% 30.21 in 10.0 mi North - - N/A   Mostly Cloudy
9:15 PM 35.6 °F 35.6 °F 100% 30.21 in 10.0 mi North - - N/A   Overcast
9:35 PM 35.8 °F 35.8 °F 100% 30.21 in 10.0 mi North - - N/A   Overcast
9:55 PM 36.0 °F 36.0 °F 100% 30.22 in 10.0 mi North - - N/A   Overcast
10:15 PM 36.1 °F 36.1 °F 100% 30.22 in 10.0 mi North - - N/A   Overcast
10:35 PM 36.0 °F 36.0 °F 100% 30.23 in 10.0 mi North - - N/A   Overcast
10:55 PM 36.0 °F 36.0 °F 100% 30.23 in 7.0 mi North - - N/A   Overcast
11:15 PM 36.3 °F 36.3 °F 100% 30.23 in 7.0 mi North - - N/A   Overcast
11:35 PM 36.5 °F 36.5 °F 100% 30.24 in 7.0 mi North - - N/A   Overcast
11:55 PM 37.0 °F 37.0 °F 100% 30.24 in 7.0 mi North - - N/A   Overcast